Location: Charlottesville
(38.0290°N, 78.4770°W)
Time: 03:16:45
(UTC-05:00)

Envisat - Pass Details

Date: 08 October 2017
Orbit: 764 x 766 km, 98.2° (Epoch: 16 December)

Event Time Altitude Azimuth Distance (km) Brightness Sun altitude
Exits shadow 22:21:42 15° 290° (WNW) 1,979 5.7 -41.9°
Drops below altitude 10° 22:23:21 10° 308° (NW) 2,308 6.1 -42.2°
Sets 22:26:29 0° 328° (NNW) 3,240 6.9 -42.7°
